Weather History for Ketchikan, AK

Change the Weather History Date:

Sunday, March 16, 2014

  Actual Average Record
Temperature  
Mean Temperature 39 °F -  
Max Temperature 44 °F 43 °F 55 °F (1966)
Min Temperature 34 °F 32 °F 12 °F (2002)
Degree Days  
Heating Degree Days 26    
Moisture  
Dew Point 34 °F    
Average Humidity 81    
Maximum Humidity 100    
Minimum Humidity 51    
Precipitation  
Precipitation 0.48 in - - ()
Sea Level Pressure  
Sea Level Pressure 29.78 in    
Wind  
Wind Speed 13 mph (West)    
Max Wind Speed 18 mph    
Max Gust Speed 26 mph    
Visibility 9 miles    
Events Rain    
Averages and records for this station are not official NWS values.
T = Trace of Precipitation, MM = Missing Value Source: NWS Daily Summary

Daily Weather History Graph

Daily Weather History Graph

Search for Another Location

Airport:

Trip Planner

Search our weather history database for the weather conditions in past years. The results will help you decide how hot, cold, wet, or windy it might be!

Date:

Astronomy

Mar. 16, 2014 Rise Set
Actual Time 6:58 AM AKDT 6:52 PM AKDT
Civil Twilight 6:22 AM AKDT 7:29 PM AKDT
Nautical Twilight 5:39 AM AKDT 8:12 PM AKDT
Astronomical Twilight 4:54 AM AKDT 8:57 PM AKDT
Moon 7:26 PM AKDT 6:41 AM AKDT
Length of Visible Light 13h 06m
Length of Day
11h 54m
Full, 100% of the Moon is Illuminated
Mar 16
Full
Mar 23
Last Quarter
Mar 30
New
Apr 7
First Quarter
Apr 14
Full

Hourly Weather History & Observations

Time (AKDT) Temp. Windchill Dew Point Humidity Pressure Visibility Wind Dir Wind Speed Gust Speed Precip Events Conditions
12:53 AM 44.1 °F 36.2 °F 44.1 °F 100% 29.45 in 4.0 mi SE 18.4 mph 26.5 mph 0.23 in Rain Rain
1:05 AM 44.6 °F 37.2 °F 42.8 °F 93% 29.45 in 6.0 mi SE 17.3 mph 25.3 mph 0.02 in Rain Light Rain
1:53 AM 44.1 °F 36.8 °F 43.0 °F 96% 29.47 in 7.0 mi SE 16.1 mph - 0.05 in Rain Light Rain
2:53 AM 43.0 °F 36.0 °F 43.0 °F 100% 29.49 in 10.0 mi SE 13.8 mph - 0.00 in Rain Light Rain
3:08 AM 42.8 °F 36.2 °F 42.8 °F 100% 29.48 in 10.0 mi SE 12.7 mph - 0.00 in Rain Light Rain
3:14 AM 42.8 °F 36.6 °F 42.8 °F 100% 29.49 in 10.0 mi SE 11.5 mph - 0.00 in   Overcast
3:53 AM 43.0 °F 37.7 °F 42.1 °F 97% 29.52 in 10.0 mi SE 9.2 mph - 0.00 in   Overcast
4:53 AM 43.0 °F 36.0 °F 42.1 °F 97% 29.55 in 10.0 mi SE 13.8 mph - 0.00 in   Overcast
5:53 AM 43.0 °F 35.7 °F 41.0 °F 93% 29.57 in 10.0 mi SE 15.0 mph - N/A   Overcast
6:09 AM 42.8 °F 36.2 °F 41.0 °F 93% 29.58 in 10.0 mi SE 12.7 mph - N/A   Overcast
6:53 AM 43.0 °F 36.0 °F 41.0 °F 93% 29.60 in 10.0 mi SE 13.8 mph - N/A   Overcast
7:53 AM 42.1 °F 37.1 °F 37.0 °F 82% 29.65 in 6.0 mi NW 8.1 mph - 0.04 in Rain Light Rain
8:53 AM 39.0 °F 31.4 °F 34.0 °F 82% 29.70 in 10.0 mi WNW 12.7 mph 19.6 mph 0.03 in Rain Light Rain
9:00 AM 39.2 °F 33.6 °F 35.6 °F 87% 29.70 in 10.0 mi NW 8.1 mph 19.6 mph 0.00 in Rain Light Rain
9:53 AM 37.9 °F 32.1 °F 34.0 °F 86% 29.76 in 7.0 mi NW 8.1 mph - 0.04 in Rain Light Rain
10:53 AM 37.9 °F 32.1 °F 33.1 °F 83% 29.81 in 6.0 mi WNW 8.1 mph 21.9 mph 0.06 in Rain Light Rain
11:53 AM 39.0 °F 32.3 °F 32.0 °F 76% 29.85 in 10.0 mi WNW 10.4 mph 17.3 mph 0.03 in Rain Light Rain
12:53 PM 39.0 °F 32.3 °F 30.9 °F 73% 29.89 in 10.0 mi WNW 10.4 mph 21.9 mph N/A   Overcast
1:53 PM 39.0 °F 31.8 °F 30.9 °F 73% 29.94 in 10.0 mi WNW 11.5 mph 20.7 mph N/A   Overcast
2:53 PM 39.9 °F 34.5 °F 28.9 °F 65% 29.97 in 10.0 mi WNW 8.1 mph 24.2 mph 0.00 in   Overcast
3:53 PM 39.0 °F 32.3 °F 28.0 °F 65% 29.99 in 10.0 mi WNW 10.4 mph 21.9 mph N/A   Mostly Cloudy
4:53 PM 39.9 °F 33.4 °F 25.0 °F 55% 30.01 in 10.0 mi NW 10.4 mph 20.7 mph N/A   Mostly Cloudy
5:53 PM 37.9 °F 31.5 °F 21.0 °F 51% 30.03 in 10.0 mi NW 9.2 mph 17.3 mph N/A   Scattered Clouds
6:53 PM 37.0 °F 29.8 °F 23.0 °F 57% 30.06 in 10.0 mi WNW 10.4 mph 18.4 mph N/A   Partly Cloudy
7:53 PM 37.0 °F 31.0 °F 25.0 °F 62% 30.08 in 10.0 mi WNW 8.1 mph - N/A   Scattered Clouds
8:53 PM 36.0 °F 33.3 °F 24.1 °F 62% 30.10 in 10.0 mi NW 3.5 mph - N/A   Clear
9:53 PM 36.0 °F - 26.1 °F 67% 30.12 in 10.0 mi Calm Calm - N/A   Overcast
10:53 PM 34.0 °F 31.0 °F 27.0 °F 75% 30.13 in 10.0 mi WSW 3.5 mph - N/A   Overcast
11:53 PM 34.0 °F 31.0 °F 27.0 °F 75% 30.14 in 10.0 mi SSE 3.5 mph - N/A   Overcast